Time,TemperatureF,DewpointF,PressureIn,WindDirection,WindDirectionDegrees,WindSpeedMPH,WindSpeedGustMPH,Humidity,HourlyPrecipIn,Conditions,Clouds,dailyrainin,SoftwareType,DateUTC
2013-04-14 00:00:00,42.8,26.9,30.04,North,-999,-999.0,-999.0,53,-99.99,,,-99.99,,2013-04-14 04:00:00,
2013-04-14 00:01:00,42.8,26.9,30.04,North,-999,-999.0,-999.0,53,-99.99,,,-99.99,,2013-04-14 04:01:00,
2013-04-14 00:04:00,42.8,26.9,30.04,North,-999,-999.0,-999.0,53,-99.99,,,-99.99,,2013-04-14 04:04:00,
2013-04-14 00:09:00,42.8,26.9,30.04,North,-999,-999.0,-999.0,53,-99.99,,,-99.99,,2013-04-14 04:09:00,
2013-04-14 00:14:00,42.8,26.9,30.04,North,-999,-999.0,-999.0,53,-99.99,,,-99.99,,2013-04-14 04:14:00,
2013-04-14 00:19:00,42.8,26.9,30.04,North,-999,-999.0,-999.0,53,-99.99,,,-99.99,,2013-04-14 04:19:00,
2013-04-14 00:24:00,42.8,27.3,30.04,North,-999,-999.0,-999.0,54,-99.99,,,-99.99,,2013-04-14 04:24:00,
2013-04-14 00:30:00,42.8,27.3,30.04,North,-999,-999.0,-999.0,54,-99.99,,,-99.99,,2013-04-14 04:30:00,
2013-04-14 00:35:00,42.8,27.3,30.04,North,-999,-999.0,-999.0,54,-99.99,,,-99.99,,2013-04-14 04:35:00,
2013-04-14 00:40:00,42.8,27.3,30.04,North,-999,-999.0,-999.0,54,-99.99,,,-99.99,,2013-04-14 04:40:00,
2013-04-14 00:45:00,42.6,27.6,30.04,North,-999,-999.0,-999.0,55,-99.99,,,-99.99,,2013-04-14 04:45:00,
2013-04-14 00:50:00,42.8,27.8,30.04,North,-999,-999.0,-999.0,55,-99.99,,,-99.99,,2013-04-14 04:50:00,
2013-04-14 00:56:00,42.8,27.8,30.04,North,-999,-999.0,-999.0,55,-99.99,,,-99.99,,2013-04-14 04:56:00,
2013-04-14 01:01:00,42.8,27.8,30.04,North,-999,-999.0,-999.0,55,-99.99,,,-99.99,,2013-04-14 05:01:00,
2013-04-14 01:07:00,42.8,27.8,30.04,North,-999,-999.0,-999.0,55,-99.99,,,-99.99,,2013-04-14 05:07:00,
2013-04-14 01:12:00,42.8,27.8,30.04,North,-999,-999.0,-999.0,55,-99.99,,,-99.99,,2013-04-14 05:12:00,
2013-04-14 01:17:00,42.8,27.8,30.04,North,-999,-999.0,-999.0,55,-99.99,,,-99.99,,2013-04-14 05:17:00,
2013-04-14 01:22:00,42.8,27.8,30.04,North,-999,-999.0,-999.0,55,-99.99,,,-99.99,,2013-04-14 05:22:00,
2013-04-14 01:28:00,42.6,27.6,30.04,North,-999,-999.0,-999.0,55,-99.99,,,-99.99,,2013-04-14 05:28:00,
2013-04-14 01:33:00,42.6,27.6,30.04,North,-999,-999.0,-999.0,55,-99.99,,,-99.99,,2013-04-14 05:33:00,
2013-04-14 01:39:00,42.8,27.8,30.04,North,-999,-999.0,-999.0,55,-99.99,,,-99.99,,2013-04-14 05:39:00,
2013-04-14 01:44:00,42.3,27.7,30.04,North,-999,-999.0,-999.0,56,-99.99,,,-99.99,,2013-04-14 05:44:00,
2013-04-14 01:50:00,41.7,27.6,30.07,North,-999,-999.0,-999.0,57,-99.99,,,-99.99,,2013-04-14 05:50:00,
2013-04-14 01:55:00,41.5,27.9,30.07,North,-999,-999.0,-999.0,58,-99.99,,,-99.99,,2013-04-14 05:55:00,
2013-04-14 02:01:00,41.5,28.3,30.07,North,-999,-999.0,-999.0,59,-99.99,,,-99.99,,2013-04-14 06:01:00,
2013-04-14 02:07:00,41.4,28.6,30.07,North,-999,-999.0,-999.0,60,-99.99,,,-99.99,,2013-04-14 06:07:00,
2013-04-14 02:12:00,41.4,28.6,30.07,North,-999,-999.0,-999.0,60,-99.99,,,-99.99,,2013-04-14 06:12:00,
2013-04-14 02:17:00,41.2,28.8,30.07,North,-999,-999.0,-999.0,61,-99.99,,,-99.99,,2013-04-14 06:17:00,
2013-04-14 02:23:00,41.2,28.8,30.07,North,-999,-999.0,-999.0,61,-99.99,,,-99.99,,2013-04-14 06:23:00,
2013-04-14 02:28:00,41.2,29.2,30.07,North,-999,-999.0,-999.0,62,-99.99,,,-99.99,,2013-04-14 06:28:00,
2013-04-14 02:33:00,41.2,29.2,30.07,North,-999,-999.0,-999.0,62,-99.99,,,-99.99,,2013-04-14 06:33:00,
2013-04-14 02:38:00,41.2,29.2,30.07,North,-999,-999.0,-999.0,62,-99.99,,,-99.99,,2013-04-14 06:38:00,
2013-04-14 02:44:00,41.2,29.6,30.07,North,-999,-999.0,-999.0,63,-99.99,,,-99.99,,2013-04-14 06:44:00,
2013-04-14 02:49:00,41.2,29.6,30.07,North,-999,-999.0,-999.0,63,-99.99,,,-99.99,,2013-04-14 06:49:00,
2013-04-14 02:54:00,41.2,29.6,30.07,North,-999,-999.0,-999.0,63,-99.99,,,-99.99,,2013-04-14 06:54:00,
2013-04-14 02:59:00,41.2,29.6,30.07,North,-999,-999.0,-999.0,63,-99.99,,,-99.99,,2013-04-14 06:59:00,
2013-04-14 03:04:00,41.4,29.7,30.07,North,-999,-999.0,-999.0,63,-99.99,,,-99.99,,2013-04-14 07:04:00,
2013-04-14 03:10:00,41.4,29.7,30.07,North,-999,-999.0,-999.0,63,-99.99,,,-99.99,,2013-04-14 07:10:00,
2013-04-14 03:15:00,41.5,29.5,30.07,North,-999,-999.0,-999.0,62,-99.99,,,-99.99,,2013-04-14 07:15:00,
2013-04-14 03:20:00,41.5,29.5,30.07,North,-999,-999.0,-999.0,62,-99.99,,,-99.99,,2013-04-14 07:20:00,
2013-04-14 03:25:00,41.5,29.1,30.07,North,-999,-999.0,-999.0,61,-99.99,,,-99.99,,2013-04-14 07:25:00,
2013-04-14 03:30:00,41.5,28.7,30.07,North,-999,-999.0,-999.0,60,-99.99,,,-99.99,,2013-04-14 07:30:00,
2013-04-14 03:36:00,41.5,28.7,30.07,North,-999,-999.0,-999.0,60,-99.99,,,-99.99,,2013-04-14 07:36:00,
2013-04-14 03:42:00,41.5,28.3,30.07,North,-999,-999.0,-999.0,59,-99.99,,,-99.99,,2013-04-14 07:42:00,
2013-04-14 03:47:00,41.5,27.9,30.07,North,-999,-999.0,-999.0,58,-99.99,,,-99.99,,2013-04-14 07:47:00,
2013-04-14 03:52:00,41.5,27.5,30.07,North,-999,-999.0,-999.0,57,-99.99,,,-99.99,,2013-04-14 07:52:00,
2013-04-14 03:57:00,41.4,26.9,30.07,North,-999,-999.0,-999.0,56,-99.99,,,-99.99,,2013-04-14 07:57:00,
2013-04-14 04:02:00,41.2,26.7,30.07,North,-999,-999.0,-999.0,56,-99.99,,,-99.99,,2013-04-14 08:02:00,
2013-04-14 04:08:00,41.2,26.7,30.07,North,-999,-999.0,-999.0,56,-99.99,,,-99.99,,2013-04-14 08:08:00,
2013-04-14 04:13:00,41.4,26.9,30.07,North,-999,-999.0,-999.0,56,-99.99,,,-99.99,,2013-04-14 08:13:00,
2013-04-14 04:19:00,41.4,26.9,30.07,North,-999,-999.0,-999.0,56,-99.99,,,-99.99,,2013-04-14 08:19:00,
2013-04-14 04:24:00,41.4,27.3,30.07,North,-999,-999.0,-999.0,57,-99.99,,,-99.99,,2013-04-14 08:24:00,
2013-04-14 04:29:00,41.4,27.3,30.07,North,-999,-999.0,-999.0,57,-99.99,,,-99.99,,2013-04-14 08:29:00,
2013-04-14 04:34:00,41.4,27.3,30.07,North,-999,-999.0,-999.0,57,-99.99,,,-99.99,,2013-04-14 08:34:00,
2013-04-14 04:41:00,41.2,27.1,30.07,North,-999,-999.0,-999.0,57,-99.99,,,-99.99,,2013-04-14 08:41:00,
2013-04-14 04:46:00,41.4,27.3,30.07,North,-999,-999.0,-999.0,57,-99.99,,,-99.99,,2013-04-14 08:46:00,
2013-04-14 04:52:00,41.4,26.9,30.10,North,-999,-999.0,-999.0,56,-99.99,,,-99.99,,2013-04-14 08:52:00,
2013-04-14 04:57:00,41.2,26.3,30.10,North,-999,-999.0,-999.0,55,-99.99,,,-99.99,,2013-04-14 08:57:00,
2013-04-14 05:02:00,41.2,25.4,30.10,North,-999,-999.0,-999.0,53,-99.99,,,-99.99,,2013-04-14 09:02:00,
2013-04-14 05:07:00,41.0,24.3,30.10,North,-999,-999.0,-999.0,51,-99.99,,,-99.99,,2013-04-14 09:07:00,
2013-04-14 05:12:00,41.0,24.3,30.10,North,-999,-999.0,-999.0,51,-99.99,,,-99.99,,2013-04-14 09:12:00,
2013-04-14 05:18:00,40.8,23.7,30.10,North,-999,-999.0,-999.0,50,-99.99,,,-99.99,,2013-04-14 09:18:00,
2013-04-14 05:23:00,40.8,23.7,30.10,North,-999,-999.0,-999.0,50,-99.99,,,-99.99,,2013-04-14 09:23:00,
2013-04-14 05:28:00,40.8,23.7,30.10,North,-999,-999.0,-999.0,50,-99.99,,,-99.99,,2013-04-14 09:28:00,
2013-04-14 05:33:00,41.0,23.8,30.10,North,-999,-999.0,-999.0,50,-99.99,,,-99.99,,2013-04-14 09:33:00,
2013-04-14 05:38:00,40.8,23.7,30.10,North,-999,-999.0,-999.0,50,-99.99,,,-99.99,,2013-04-14 09:38:00,
2013-04-14 05:44:00,40.8,24.1,30.10,North,-999,-999.0,-999.0,51,-99.99,,,-99.99,,2013-04-14 09:44:00,
2013-04-14 05:49:00,40.6,24.4,30.10,North,-999,-999.0,-999.0,52,-99.99,,,-99.99,,2013-04-14 09:49:00,
2013-04-14 05:55:00,40.8,24.6,30.10,North,-999,-999.0,-999.0,52,-99.99,,,-99.99,,2013-04-14 09:55:00,
2013-04-14 06:01:00,40.8,24.6,30.10,North,-999,-999.0,-999.0,52,-99.99,,,-99.99,,2013-04-14 10:01:00,
2013-04-14 06:06:00,40.6,24.4,30.10,North,-999,-999.0,-999.0,52,-99.99,,,-99.99,,2013-04-14 10:06:00,
2013-04-14 06:11:00,40.5,24.3,30.10,North,-999,-999.0,-999.0,52,-99.99,,,-99.99,,2013-04-14 10:11:00,
2013-04-14 06:16:00,40.5,24.3,30.10,North,-999,-999.0,-999.0,52,-99.99,,,-99.99,,2013-04-14 10:16:00,
2013-04-14 06:21:00,40.5,23.8,30.10,North,-999,-999.0,-999.0,51,-99.99,,,-99.99,,2013-04-14 10:21:00,
2013-04-14 06:27:00,40.5,23.8,30.10,North,-999,-999.0,-999.0,51,-99.99,,,-99.99,,2013-04-14 10:27:00,
2013-04-14 06:32:00,40.5,23.8,30.13,North,-999,-999.0,-999.0,51,-99.99,,,-99.99,,2013-04-14 10:32:00,
2013-04-14 06:38:00,40.5,23.8,30.13,North,-999,-999.0,-999.0,51,-99.99,,,-99.99,,2013-04-14 10:38:00,
2013-04-14 06:43:00,40.5,23.8,30.13,North,-999,-999.0,-999.0,51,-99.99,,,-99.99,,2013-04-14 10:43:00,
2013-04-14 06:48:00,40.3,23.6,30.13,North,-999,-999.0,-999.0,51,-99.99,,,-99.99,,2013-04-14 10:48:00,
2013-04-14 06:54:00,40.3,23.6,30.13,North,-999,-999.0,-999.0,51,-99.99,,,-99.99,,2013-04-14 10:54:00,
2013-04-14 06:59:00,40.1,23.5,30.13,North,-999,-999.0,-999.0,51,-99.99,,,-99.99,,2013-04-14 10:59:00,
2013-04-14 07:04:00,40.3,23.6,30.13,North,-999,-999.0,-999.0,51,-99.99,,,-99.99,,2013-04-14 11:04:00,
2013-04-14 07:09:00,40.8,24.1,30.13,North,-999,-999.0,-999.0,51,-99.99,,,-99.99,,2013-04-14 11:09:00,
2013-04-14 07:15:00,40.5,23.8,30.13,North,-999,-999.0,-999.0,51,-99.99,,,-99.99,,2013-04-14 11:15:00,
2013-04-14 07:20:00,40.6,23.5,30.13,North,-999,-999.0,-999.0,50,-99.99,,,-99.99,,2013-04-14 11:20:00,
2013-04-14 07:25:00,40.8,23.7,30.13,North,-999,-999.0,-999.0,50,-99.99,,,-99.99,,2013-04-14 11:25:00,
2013-04-14 07:30:00,40.8,23.7,30.13,North,-999,-999.0,-999.0,50,-99.99,,,-99.99,,2013-04-14 11:30:00,
2013-04-14 07:35:00,41.0,23.8,30.16,North,-999,-999.0,-999.0,50,-99.99,,,-99.99,,2013-04-14 11:35:00,
2013-04-14 07:41:00,41.5,24.3,30.16,North,-999,-999.0,-999.0,50,-99.99,,,-99.99,,2013-04-14 11:41:00,
2013-04-14 07:46:00,42.8,25.0,30.16,North,-999,-999.0,-999.0,49,-99.99,,,-99.99,,2013-04-14 11:46:00,
2013-04-14 07:52:00,45.0,26.5,30.16,North,-999,-999.0,-999.0,48,-99.99,,,-99.99,,2013-04-14 11:52:00,
2013-04-14 07:57:00,49.3,27.8,30.16,North,-999,-999.0,-999.0,43,-99.99,,,-99.99,,2013-04-14 11:57:00,
2013-04-14 08:02:00,50.2,27.4,30.16,North,-999,-999.0,-999.0,41,-99.99,,,-99.99,,2013-04-14 12:02:00,
2013-04-14 08:08:00,47.3,25.4,30.16,North,-999,-999.0,-999.0,42,-99.99,,,-99.99,,2013-04-14 12:08:00,
2013-04-14 08:13:00,46.0,24.8,30.16,North,-999,-999.0,-999.0,43,-99.99,,,-99.99,,2013-04-14 12:13:00,
2013-04-14 08:18:00,45.3,24.7,30.16,North,-999,-999.0,-999.0,44,-99.99,,,-99.99,,2013-04-14 12:18:00,
2013-04-14 08:24:00,45.0,24.4,30.16,North,-999,-999.0,-999.0,44,-99.99,,,-99.99,,2013-04-14 12:24:00,
2013-04-14 08:29:00,44.6,24.6,30.16,North,-999,-999.0,-999.0,45,-99.99,,,-99.99,,2013-04-14 12:29:00,
2013-04-14 08:35:00,44.2,24.3,30.16,North,-999,-999.0,-999.0,45,-99.99,,,-99.99,,2013-04-14 12:35:00,
2013-04-14 08:40:00,44.1,24.1,30.16,North,-999,-999.0,-999.0,45,-99.99,,,-99.99,,2013-04-14 12:40:00,
2013-04-14 08:45:00,44.1,24.1,30.16,North,-999,-999.0,-999.0,45,-99.99,,,-99.99,,2013-04-14 12:45:00,
2013-04-14 08:50:00,44.2,24.3,30.16,North,-999,-999.0,-999.0,45,-99.99,,,-99.99,,2013-04-14 12:50:00,
2013-04-14 08:55:00,44.6,24.1,30.16,North,-999,-999.0,-999.0,44,-99.99,,,-99.99,,2013-04-14 12:55:00,
2013-04-14 09:01:00,44.8,24.2,30.16,North,-999,-999.0,-999.0,44,-99.99,,,-99.99,,2013-04-14 13:01:00,
2013-04-14 09:06:00,45.1,24.0,30.16,North,-999,-999.0,-999.0,43,-99.99,,,-99.99,,2013-04-14 13:06:00,
2013-04-14 09:11:00,45.1,24.0,30.16,North,-999,-999.0,-999.0,43,-99.99,,,-99.99,,2013-04-14 13:11:00,
2013-04-14 09:16:00,45.5,23.8,30.16,North,-999,-999.0,-999.0,42,-99.99,,,-99.99,,2013-04-14 13:16:00,
2013-04-14 09:22:00,46.0,24.3,30.16,North,-999,-999.0,-999.0,42,-99.99,,,-99.99,,2013-04-14 13:22:00,
2013-04-14 09:27:00,46.8,24.4,30.16,North,-999,-999.0,-999.0,41,-99.99,,,-99.99,,2013-04-14 13:27:00,
2013-04-14 09:33:00,47.1,24.1,30.19,North,-999,-999.0,-999.0,40,-99.99,,,-99.99,,2013-04-14 13:33:00,
2013-04-14 09:38:00,47.5,24.4,30.19,North,-999,-999.0,-999.0,40,-99.99,,,-99.99,,2013-04-14 13:38:00,
2013-04-14 09:43:00,47.3,24.3,30.19,North,-999,-999.0,-999.0,40,-99.99,,,-99.99,,2013-04-14 13:43:00,
2013-04-14 09:49:00,47.8,24.7,30.19,North,-999,-999.0,-999.0,40,-99.99,,,-99.99,,2013-04-14 13:49:00,
2013-04-14 09:54:00,48.4,24.6,30.19,North,-999,-999.0,-999.0,39,-99.99,,,-99.99,,2013-04-14 13:54:00,
2013-04-14 09:59:00,48.0,24.3,30.19,North,-999,-999.0,-999.0,39,-99.99,,,-99.99,,2013-04-14 13:59:00,
2013-04-14 10:05:00,48.0,24.3,30.19,North,-999,-999.0,-999.0,39,-99.99,,,-99.99,,2013-04-14 14:05:00,
2013-04-14 10:10:00,48.4,24.6,30.19,North,-999,-999.0,-999.0,39,-99.99,,,-99.99,,2013-04-14 14:10:00,
2013-04-14 10:16:00,48.2,24.5,30.19,North,-999,-999.0,-999.0,39,-99.99,,,-99.99,,2013-04-14 14:16:00,
2013-04-14 10:22:00,48.7,24.3,30.19,North,-999,-999.0,-999.0,38,-99.99,,,-99.99,,2013-04-14 14:22:00,
2013-04-14 10:27:00,48.4,24.0,30.19,North,-999,-999.0,-999.0,38,-99.99,,,-99.99,,2013-04-14 14:27:00,
2013-04-14 10:32:00,48.4,24.0,30.19,North,-999,-999.0,-999.0,38,-99.99,,,-99.99,,2013-04-14 14:32:00,
2013-04-14 10:37:00,48.6,24.2,30.19,North,-999,-999.0,-999.0,38,-99.99,,,-99.99,,2013-04-14 14:37:00,
2013-04-14 10:43:00,49.8,25.3,30.19,North,-999,-999.0,-999.0,38,-99.99,,,-99.99,,2013-04-14 14:43:00,
2013-04-14 10:48:00,50.5,25.3,30.19,North,-999,-999.0,-999.0,37,-99.99,,,-99.99,,2013-04-14 14:48:00,
2013-04-14 10:53:00,50.7,25.4,30.19,North,-999,-999.0,-999.0,37,-99.99,,,-99.99,,2013-04-14 14:53:00,
2013-04-14 10:58:00,51.4,26.1,30.19,North,-999,-999.0,-999.0,37,-99.99,,,-99.99,,2013-04-14 14:58:00,
2013-04-14 11:03:00,50.9,25.6,30.19,North,-999,-999.0,-999.0,37,-99.99,,,-99.99,,2013-04-14 15:03:00,
2013-04-14 11:09:00,51.3,25.9,30.19,North,-999,-999.0,-999.0,37,-99.99,,,-99.99,,2013-04-14 15:09:00,
2013-04-14 11:14:00,50.4,25.1,30.19,North,-999,-999.0,-999.0,37,-99.99,,,-99.99,,2013-04-14 15:14:00,
2013-04-14 11:20:00,49.8,24.6,30.19,North,-999,-999.0,-999.0,37,-99.99,,,-99.99,,2013-04-14 15:20:00,
2013-04-14 11:26:00,49.6,24.5,30.19,North,-999,-999.0,-999.0,37,-99.99,,,-99.99,,2013-04-14 15:26:00,
2013-04-14 11:31:00,49.5,24.3,30.19,North,-999,-999.0,-999.0,37,-99.99,,,-99.99,,2013-04-14 15:31:00,
2013-04-14 11:36:00,49.1,24.0,30.19,North,-999,-999.0,-999.0,37,-99.99,,,-99.99,,2013-04-14 15:36:00,
2013-04-14 11:41:00,49.1,24.0,30.19,North,-999,-999.0,-999.0,37,-99.99,,,-99.99,,2013-04-14 15:41:00,
2013-04-14 11:46:00,48.9,23.8,30.19,North,-999,-999.0,-999.0,37,-99.99,,,-99.99,,2013-04-14 15:46:00,
2013-04-14 11:52:00,48.7,23.7,30.22,North,-999,-999.0,-999.0,37,-99.99,,,-99.99,,2013-04-14 15:52:00,
2013-04-14 11:57:00,48.7,23.7,30.22,North,-999,-999.0,-999.0,37,-99.99,,,-99.99,,2013-04-14 15:57:00,
2013-04-14 12:03:00,48.4,23.4,30.22,North,-999,-999.0,-999.0,37,-99.99,,,-99.99,,2013-04-14 16:03:00,
2013-04-14 12:08:00,48.4,23.4,30.22,North,-999,-999.0,-999.0,37,-99.99,,,-99.99,,2013-04-14 16:08:00,
2013-04-14 12:13:00,48.6,23.5,30.22,North,-999,-999.0,-999.0,37,-99.99,,,-99.99,,2013-04-14 16:13:00,
2013-04-14 12:18:00,48.7,23.7,30.22,North,-999,-999.0,-999.0,37,-99.99,,,-99.99,,2013-04-14 16:18:00,
2013-04-14 12:23:00,48.6,23.5,30.22,North,-999,-999.0,-999.0,37,-99.99,,,-99.99,,2013-04-14 16:23:00,
2013-04-14 12:29:00,48.6,23.5,30.22,North,-999,-999.0,-999.0,37,-99.99,,,-99.99,,2013-04-14 16:29:00,
2013-04-14 12:34:00,48.6,23.5,30.22,North,-999,-999.0,-999.0,37,-99.99,,,-99.99,,2013-04-14 16:34:00,
2013-04-14 12:40:00,48.7,23.7,30.22,North,-999,-999.0,-999.0,37,-99.99,,,-99.99,,2013-04-14 16:40:00,
2013-04-14 12:45:00,48.9,23.8,30.22,North,-999,-999.0,-999.0,37,-99.99,,,-99.99,,2013-04-14 16:45:00,
2013-04-14 12:50:00,49.1,24.0,30.22,North,-999,-999.0,-999.0,37,-99.99,,,-99.99,,2013-04-14 16:50:00,
2013-04-14 12:55:00,49.1,24.0,30.22,North,-999,-999.0,-999.0,37,-99.99,,,-99.99,,2013-04-14 16:55:00,
2013-04-14 13:00:00,48.9,23.8,30.22,North,-999,-999.0,-999.0,37,-99.99,,,-99.99,,2013-04-14 17:00:00,
2013-04-14 13:06:00,48.9,23.8,30.22,North,-999,-999.0,-999.0,37,-99.99,,,-99.99,,2013-04-14 17:06:00,
2013-04-14 13:11:00,48.7,23.7,30.22,North,-999,-999.0,-999.0,37,-99.99,,,-99.99,,2013-04-14 17:11:00,
2013-04-14 13:16:00,48.7,23.7,30.22,North,-999,-999.0,-999.0,37,-99.99,,,-99.99,,2013-04-14 17:16:00,
2013-04-14 13:21:00,48.7,23.7,30.22,North,-999,-999.0,-999.0,37,-99.99,,,-99.99,,2013-04-14 17:21:00,
2013-04-14 13:26:00,48.7,23.7,30.22,North,-999,-999.0,-999.0,37,-99.99,,,-99.99,,2013-04-14 17:26:00,
2013-04-14 13:32:00,48.9,23.8,30.22,North,-999,-999.0,-999.0,37,-99.99,,,-99.99,,2013-04-14 17:32:00,
2013-04-14 13:37:00,48.7,23.7,30.24,North,-999,-999.0,-999.0,37,-99.99,,,-99.99,,2013-04-14 17:37:00,
2013-04-14 13:42:00,48.6,23.5,30.24,North,-999,-999.0,-999.0,37,-99.99,,,-99.99,,2013-04-14 17:42:00,
2013-04-14 13:47:00,48.7,23.7,30.24,North,-999,-999.0,-999.0,37,-99.99,,,-99.99,,2013-04-14 17:47:00,
2013-04-14 13:52:00,48.9,23.8,30.22,North,-999,-999.0,-999.0,37,-99.99,,,-99.99,,2013-04-14 17:52:00,
2013-04-14 13:58:00,48.9,23.8,30.22,North,-999,-999.0,-999.0,37,-99.99,,,-99.99,,2013-04-14 17:58:00,
2013-04-14 14:03:00,48.7,23.7,30.24,North,-999,-999.0,-999.0,37,-99.99,,,-99.99,,2013-04-14 18:03:00,
2013-04-14 14:08:00,48.7,23.7,30.24,North,-999,-999.0,-999.0,37,-99.99,,,-99.99,,2013-04-14 18:08:00,
2013-04-14 14:13:00,48.7,23.7,30.24,North,-999,-999.0,-999.0,37,-99.99,,,-99.99,,2013-04-14 18:13:00,
2013-04-14 14:18:00,48.7,23.7,30.24,North,-999,-999.0,-999.0,37,-99.99,,,-99.99,,2013-04-14 18:18:00,
2013-04-14 14:24:00,49.1,24.0,30.24,North,-999,-999.0,-999.0,37,-99.99,,,-99.99,,2013-04-14 18:24:00,
2013-04-14 14:29:00,49.3,24.2,30.24,North,-999,-999.0,-999.0,37,-99.99,,,-99.99,,2013-04-14 18:29:00,
2013-04-14 14:34:00,49.3,24.8,30.24,North,-999,-999.0,-999.0,38,-99.99,,,-99.99,,2013-04-14 18:34:00,
2013-04-14 14:40:00,49.6,25.1,30.24,North,-999,-999.0,-999.0,38,-99.99,,,-99.99,,2013-04-14 18:40:00,
2013-04-14 14:45:00,49.8,25.3,30.24,North,-999,-999.0,-999.0,38,-99.99,,,-99.99,,2013-04-14 18:45:00,
2013-04-14 14:50:00,50.0,24.8,30.22,North,-999,-999.0,-999.0,37,-99.99,,,-99.99,,2013-04-14 18:50:00,
2013-04-14 14:55:00,50.2,25.6,30.22,North,-999,-999.0,-999.0,38,-99.99,,,-99.99,,2013-04-14 18:55:00,
2013-04-14 15:01:00,50.5,25.9,30.22,North,-999,-999.0,-999.0,38,-99.99,,,-99.99,,2013-04-14 19:01:00,
2013-04-14 15:07:00,50.7,26.1,30.24,North,-999,-999.0,-999.0,38,-99.99,,,-99.99,,2013-04-14 19:07:00,
2013-04-14 15:12:00,50.7,26.1,30.24,North,-999,-999.0,-999.0,38,-99.99,,,-99.99,,2013-04-14 19:12:00,
2013-04-14 15:17:00,51.3,26.6,30.24,North,-999,-999.0,-999.0,38,-99.99,,,-99.99,,2013-04-14 19:17:00,
2013-04-14 15:22:00,51.4,26.7,30.24,North,-999,-999.0,-999.0,38,-99.99,,,-99.99,,2013-04-14 19:22:00,
2013-04-14 15:27:00,51.4,26.1,30.24,North,-999,-999.0,-999.0,37,-99.99,,,-99.99,,2013-04-14 19:27:00,
2013-04-14 15:33:00,52.0,26.6,30.24,North,-999,-999.0,-999.0,37,-99.99,,,-99.99,,2013-04-14 19:33:00,
2013-04-14 15:38:00,51.8,26.4,30.24,North,-999,-999.0,-999.0,37,-99.99,,,-99.99,,2013-04-14 19:38:00,
2013-04-14 15:44:00,51.4,26.1,30.24,North,-999,-999.0,-999.0,37,-99.99,,,-99.99,,2013-04-14 19:44:00,
2013-04-14 15:49:00,51.4,26.1,30.24,North,-999,-999.0,-999.0,37,-99.99,,,-99.99,,2013-04-14 19:49:00,
2013-04-14 15:54:00,51.8,26.4,30.24,North,-999,-999.0,-999.0,37,-99.99,,,-99.99,,2013-04-14 19:54:00,
2013-04-14 16:00:00,51.6,26.2,30.24,North,-999,-999.0,-999.0,37,-99.99,,,-99.99,,2013-04-14 20:00:00,
2013-04-14 16:05:00,51.6,26.2,30.24,North,-999,-999.0,-999.0,37,-99.99,,,-99.99,,2013-04-14 20:05:00,
2013-04-14 16:10:00,51.8,26.4,30.24,North,-999,-999.0,-999.0,37,-99.99,,,-99.99,,2013-04-14 20:10:00,
2013-04-14 16:15:00,51.8,26.4,30.24,North,-999,-999.0,-999.0,37,-99.99,,,-99.99,,2013-04-14 20:15:00,
2013-04-14 16:21:00,51.8,26.4,30.24,North,-999,-999.0,-999.0,37,-99.99,,,-99.99,,2013-04-14 20:21:00,
2013-04-14 16:26:00,51.6,26.2,30.24,North,-999,-999.0,-999.0,37,-99.99,,,-99.99,,2013-04-14 20:26:00,
2013-04-14 16:32:00,51.6,26.2,30.24,North,-999,-999.0,-999.0,37,-99.99,,,-99.99,,2013-04-14 20:32:00,
2013-04-14 16:37:00,51.6,26.2,30.24,North,-999,-999.0,-999.0,37,-99.99,,,-99.99,,2013-04-14 20:37:00,
2013-04-14 16:42:00,51.3,25.9,30.24,North,-999,-999.0,-999.0,37,-99.99,,,-99.99,,2013-04-14 20:42:00,
2013-04-14 16:47:00,51.3,25.9,30.24,North,-999,-999.0,-999.0,37,-99.99,,,-99.99,,2013-04-14 20:47:00,
2013-04-14 16:53:00,51.3,25.9,30.24,North,-999,-999.0,-999.0,37,-99.99,,,-99.99,,2013-04-14 20:53:00,
2013-04-14 16:58:00,50.7,25.4,30.24,North,-999,-999.0,-999.0,37,-99.99,,,-99.99,,2013-04-14 20:58:00,
2013-04-14 17:04:00,50.7,25.4,30.24,North,-999,-999.0,-999.0,37,-99.99,,,-99.99,,2013-04-14 21:04:00,
2013-04-14 17:09:00,50.5,25.3,30.24,North,-999,-999.0,-999.0,37,-99.99,,,-99.99,,2013-04-14 21:09:00,
2013-04-14 17:15:00,50.2,25.0,30.24,North,-999,-999.0,-999.0,37,-99.99,,,-99.99,,2013-04-14 21:15:00,
2013-04-14 17:20:00,49.6,24.5,30.24,North,-999,-999.0,-999.0,37,-99.99,,,-99.99,,2013-04-14 21:20:00,
2013-04-14 17:25:00,49.3,24.2,30.24,North,-999,-999.0,-999.0,37,-99.99,,,-99.99,,2013-04-14 21:25:00,
2013-04-14 17:30:00,49.1,24.0,30.24,North,-999,-999.0,-999.0,37,-99.99,,,-99.99,,2013-04-14 21:30:00,
2013-04-14 17:36:00,48.6,23.5,30.24,North,-999,-999.0,-999.0,37,-99.99,,,-99.99,,2013-04-14 21:36:00,
2013-04-14 17:41:00,48.4,23.4,30.24,North,-999,-999.0,-999.0,37,-99.99,,,-99.99,,2013-04-14 21:41:00,
2013-04-14 17:46:00,48.2,23.2,30.24,North,-999,-999.0,-999.0,37,-99.99,,,-99.99,,2013-04-14 21:46:00,
2013-04-14 17:52:00,48.4,23.4,30.22,North,-999,-999.0,-999.0,37,-99.99,,,-99.99,,2013-04-14 21:52:00,
2013-04-14 17:57:00,48.2,23.2,30.22,North,-999,-999.0,-999.0,37,-99.99,,,-99.99,,2013-04-14 21:57:00,
2013-04-14 18:02:00,48.2,23.2,30.22,North,-999,-999.0,-999.0,37,-99.99,,,-99.99,,2013-04-14 22:02:00,
2013-04-14 18:07:00,48.4,23.4,30.24,North,-999,-999.0,-999.0,37,-99.99,,,-99.99,,2013-04-14 22:07:00,
2013-04-14 18:13:00,48.0,23.0,30.24,North,-999,-999.0,-999.0,37,-99.99,,,-99.99,,2013-04-14 22:13:00,
2013-04-14 18:18:00,48.0,23.0,30.24,North,-999,-999.0,-999.0,37,-99.99,,,-99.99,,2013-04-14 22:18:00,
2013-04-14 18:23:00,48.4,23.4,30.24,North,-999,-999.0,-999.0,37,-99.99,,,-99.99,,2013-04-14 22:23:00,
2013-04-14 18:29:00,48.2,23.2,30.24,North,-999,-999.0,-999.0,37,-99.99,,,-99.99,,2013-04-14 22:29:00,
2013-04-14 18:34:00,47.8,22.9,30.24,North,-999,-999.0,-999.0,37,-99.99,,,-99.99,,2013-04-14 22:34:00,
2013-04-14 18:40:00,47.5,22.6,30.24,North,-999,-999.0,-999.0,37,-99.99,,,-99.99,,2013-04-14 22:40:00,
2013-04-14 18:45:00,47.3,22.4,30.24,North,-999,-999.0,-999.0,37,-99.99,,,-99.99,,2013-04-14 22:45:00,
2013-04-14 18:50:00,47.3,22.4,30.24,North,-999,-999.0,-999.0,37,-99.99,,,-99.99,,2013-04-14 22:50:00,
2013-04-14 18:55:00,47.1,22.2,30.24,North,-999,-999.0,-999.0,37,-99.99,,,-99.99,,2013-04-14 22:55:00,
2013-04-14 19:01:00,46.9,22.1,30.24,North,-999,-999.0,-999.0,37,-99.99,,,-99.99,,2013-04-14 23:01:00,
2013-04-14 19:06:00,46.8,21.9,30.24,North,-999,-999.0,-999.0,37,-99.99,,,-99.99,,2013-04-14 23:06:00,
2013-04-14 19:12:00,46.6,21.8,30.24,North,-999,-999.0,-999.0,37,-99.99,,,-99.99,,2013-04-14 23:12:00,
2013-04-14 19:17:00,46.4,21.6,30.24,North,-999,-999.0,-999.0,37,-99.99,,,-99.99,,2013-04-14 23:17:00,
2013-04-14 19:22:00,46.4,21.6,30.24,North,-999,-999.0,-999.0,37,-99.99,,,-99.99,,2013-04-14 23:22:00,
2013-04-14 19:27:00,46.2,22.1,30.24,North,-999,-999.0,-999.0,38,-99.99,,,-99.99,,2013-04-14 23:27:00,
2013-04-14 19:33:00,46.0,21.9,30.27,North,-999,-999.0,-999.0,38,-99.99,,,-99.99,,2013-04-14 23:33:00,
2013-04-14 19:38:00,45.9,21.7,30.27,North,-999,-999.0,-999.0,38,-99.99,,,-99.99,,2013-04-14 23:38:00,
2013-04-14 19:43:00,45.7,21.6,30.27,North,-999,-999.0,-999.0,38,-99.99,,,-99.99,,2013-04-14 23:43:00,
2013-04-14 19:49:00,45.5,21.4,30.27,North,-999,-999.0,-999.0,38,-99.99,,,-99.99,,2013-04-14 23:49:00,
2013-04-14 19:54:00,45.3,21.3,30.27,North,-999,-999.0,-999.0,38,-99.99,,,-99.99,,2013-04-14 23:54:00,
2013-04-14 19:59:00,45.1,21.1,30.27,North,-999,-999.0,-999.0,38,-99.99,,,-99.99,,2013-04-14 23:59:00,
2013-04-14 20:04:00,45.0,20.9,30.27,North,-999,-999.0,-999.0,38,-99.99,,,-99.99,,2013-04-15 00:04:00,
2013-04-14 20:09:00,44.8,20.8,30.27,North,-999,-999.0,-999.0,38,-99.99,,,-99.99,,2013-04-15 00:09:00,
2013-04-14 20:15:00,44.6,20.6,30.27,North,-999,-999.0,-999.0,38,-99.99,,,-99.99,,2013-04-15 00:15:00,
2013-04-14 20:20:00,44.4,21.1,30.27,North,-999,-999.0,-999.0,39,-99.99,,,-99.99,,2013-04-15 00:20:00,
2013-04-14 20:25:00,44.6,21.2,30.27,North,-999,-999.0,-999.0,39,-99.99,,,-99.99,,2013-04-15 00:25:00,
2013-04-14 20:30:00,44.4,21.1,30.27,North,-999,-999.0,-999.0,39,-99.99,,,-99.99,,2013-04-15 00:30:00,
2013-04-14 20:35:00,44.2,20.9,30.27,North,-999,-999.0,-999.0,39,-99.99,,,-99.99,,2013-04-15 00:35:00,
2013-04-14 20:41:00,43.9,20.6,30.27,North,-999,-999.0,-999.0,39,-99.99,,,-99.99,,2013-04-15 00:41:00,
2013-04-14 20:47:00,43.7,21.0,30.27,North,-999,-999.0,-999.0,40,-99.99,,,-99.99,,2013-04-15 00:47:00,
2013-04-14 20:52:00,43.5,20.9,30.27,North,-999,-999.0,-999.0,40,-99.99,,,-99.99,,2013-04-15 00:52:00,
2013-04-14 20:57:00,43.5,20.9,30.27,North,-999,-999.0,-999.0,40,-99.99,,,-99.99,,2013-04-15 00:57:00,
2013-04-14 21:02:00,43.3,20.7,30.27,North,-999,-999.0,-999.0,40,-99.99,,,-99.99,,2013-04-15 01:02:00,
2013-04-14 21:07:00,43.2,20.5,30.27,North,-999,-999.0,-999.0,40,-99.99,,,-99.99,,2013-04-15 01:07:00,
2013-04-14 21:12:00,43.0,20.9,30.27,North,-999,-999.0,-999.0,41,-99.99,,,-99.99,,2013-04-15 01:12:00,
2013-04-14 21:18:00,42.8,20.8,30.27,North,-999,-999.0,-999.0,41,-99.99,,,-99.99,,2013-04-15 01:18:00,
2013-04-14 21:24:00,42.8,21.4,30.27,North,-999,-999.0,-999.0,42,-99.99,,,-99.99,,2013-04-15 01:24:00,
2013-04-14 21:29:00,42.4,21.0,30.27,North,-999,-999.0,-999.0,42,-99.99,,,-99.99,,2013-04-15 01:29:00,
2013-04-14 21:34:00,42.3,20.9,30.27,North,-999,-999.0,-999.0,42,-99.99,,,-99.99,,2013-04-15 01:34:00,
2013-04-14 21:39:00,42.3,21.4,30.27,North,-999,-999.0,-999.0,43,-99.99,,,-99.99,,2013-04-15 01:39:00,
2013-04-14 21:44:00,42.3,21.4,30.27,North,-999,-999.0,-999.0,43,-99.99,,,-99.99,,2013-04-15 01:44:00,
2013-04-14 21:50:00,42.1,21.8,30.30,North,-999,-999.0,-999.0,44,-99.99,,,-99.99,,2013-04-15 01:50:00,
2013-04-14 21:55:00,41.7,21.5,30.30,North,-999,-999.0,-999.0,44,-99.99,,,-99.99,,2013-04-15 01:55:00,
2013-04-14 22:00:00,41.7,21.5,30.30,North,-999,-999.0,-999.0,44,-99.99,,,-99.99,,2013-04-15 02:00:00,
2013-04-14 22:05:00,41.5,21.8,30.30,North,-999,-999.0,-999.0,45,-99.99,,,-99.99,,2013-04-15 02:05:00,
2013-04-14 22:10:00,41.5,21.8,30.30,North,-999,-999.0,-999.0,45,-99.99,,,-99.99,,2013-04-15 02:10:00,
2013-04-14 22:16:00,41.2,22.0,30.30,North,-999,-999.0,-999.0,46,-99.99,,,-99.99,,2013-04-15 02:16:00,
2013-04-14 22:21:00,41.2,22.0,30.30,North,-999,-999.0,-999.0,46,-99.99,,,-99.99,,2013-04-15 02:21:00,
2013-04-14 22:26:00,40.8,22.2,30.30,North,-999,-999.0,-999.0,47,-99.99,,,-99.99,,2013-04-15 02:26:00,
2013-04-14 22:32:00,41.0,21.9,30.30,North,-999,-999.0,-999.0,46,-99.99,,,-99.99,,2013-04-15 02:32:00,
2013-04-14 22:37:00,40.8,22.2,30.30,North,-999,-999.0,-999.0,47,-99.99,,,-99.99,,2013-04-15 02:37:00,
2013-04-14 22:42:00,40.6,22.0,30.30,North,-999,-999.0,-999.0,47,-99.99,,,-99.99,,2013-04-15 02:42:00,
2013-04-14 22:47:00,40.5,22.4,30.30,North,-999,-999.0,-999.0,48,-99.99,,,-99.99,,2013-04-15 02:47:00,
2013-04-14 22:53:00,40.5,22.4,30.30,North,-999,-999.0,-999.0,48,-99.99,,,-99.99,,2013-04-15 02:53:00,
2013-04-14 22:58:00,40.3,22.2,30.30,North,-999,-999.0,-999.0,48,-99.99,,,-99.99,,2013-04-15 02:58:00,
2013-04-14 23:03:00,40.1,22.0,30.30,North,-999,-999.0,-999.0,48,-99.99,,,-99.99,,2013-04-15 03:03:00,
2013-04-14 23:08:00,40.1,22.0,30.30,North,-999,-999.0,-999.0,48,-99.99,,,-99.99,,2013-04-15 03:08:00,
2013-04-14 23:13:00,39.9,21.9,30.30,North,-999,-999.0,-999.0,48,-99.99,,,-99.99,,2013-04-15 03:13:00,
2013-04-14 23:19:00,39.7,21.7,30.27,North,-999,-999.0,-999.0,48,-99.99,,,-99.99,,2013-04-15 03:19:00,
2013-04-14 23:24:00,39.9,21.9,30.27,North,-999,-999.0,-999.0,48,-99.99,,,-99.99,,2013-04-15 03:24:00,
2013-04-14 23:29:00,39.7,21.7,30.27,North,-999,-999.0,-999.0,48,-99.99,,,-99.99,,2013-04-15 03:29:00,
2013-04-14 23:34:00,39.7,22.2,30.27,North,-999,-999.0,-999.0,49,-99.99,,,-99.99,,2013-04-15 03:34:00,
2013-04-14 23:39:00,39.6,22.0,30.27,North,-999,-999.0,-999.0,49,-99.99,,,-99.99,,2013-04-15 03:39:00,
2013-04-14 23:45:00,39.4,21.9,30.27,North,-999,-999.0,-999.0,49,-99.99,,,-99.99,,2013-04-15 03:45:00,
2013-04-14 23:50:00,39.4,21.9,30.27,North,-999,-999.0,-999.0,49,-99.99,,,-99.99,,2013-04-15 03:50:00,
2013-04-14 23:55:00,39.2,21.7,30.27,North,-999,-999.0,-999.0,49,-99.99,,,-99.99,,2013-04-15 03:55:00,